Location: Wien
(48.2082°N, 16.3738°E)
Time: 02:33:26
(UTC+02:00)

MOZHAYETS 4 - Pass Details

Date: 01 May 2024
Orbit: 652 x 670 km, 98.3° (Epoch: 23 May)

Event Time Altitude Azimuth Distance (km) Brightness Sun altitude
Rises 02:46:06 0° 122° (ESE) 3,012 11.1 -21.7°
Reaches altitude 10° 02:48:51 10° 105° (ESE) 2,102 10.4 -21.4°
Maximum altitude 02:52:05 19° 60° (ENE) 1,571 10.3 -21.2°
Drops below altitude 10° 02:55:20 10° 15° (NNE) 2,108 11.3 -20.9°
Sets 02:58:04 0° 359° (N) 3,024 12.0 -20.6°
